Regional Weather Roundup
Issued by NWS

Home | Current Version | Previous Version | Graphics & Text | Print | Product List | Glossary On
Versions: 1 2 3 4 5 6 7 8 9 10 11 12 13 14 15 16 17 18 19 20 21 22 23 24 25 26 27 28 29 30 31 32 33 34 35 36 37 38 39 40 41 42 43 44 45 46 47 48 49 50
000
ASUS43 KDMX 300907
RWRIA

WEATHER ROUNDUP FOR IOWA
NATIONAL WEATHER SERVICE DES MOINES IA
400 AM CDT WED JUL 30 2014

NOTE: "FAIR" INDICATES FEW OR NO CLOUDS BELOW 12,000 FEET WITH NO
SIGNIFICANT WEATHER AND/OR OBSTRUCTIONS TO VISIBILITY.

* - THESE STATIONS ARE NOT NWS STATIONS...THUS NOT UNDER NWS
QUALITY CONTROL.  THEY ALSO DO NOT REPORT WEATHER SUCH
AS PRECIPITATION OR FOG.

IAZ001>003-012>014-020>022-031>034-043>046-301000-
   NORTHWEST IOWA

CITY           SKY/WX    TMP DP  RH WIND       PRES   REMARKS
CARROLL *      PTCLDY    52  50  93 W5        30.11F
CHEROKEE *     CLEAR     54  54 100 CALM      30.13S
DENISON *      CLEAR     52  52 100 CALM      30.11S
LE MARS *      CLEAR     52  52 100 CALM      30.14S
ORANGE CITY *  CLEAR     55  52  88 NW6       30.13F
SHELDON *      CLEAR     50  50 100 CALM      30.13S
SIOUX CITY     PTCLDY    53  51  93 CALM      30.13S
SPENCER        CLEAR     51  49  92 NW7       30.13S
STORM LAKE *   CLEAR     59  55  88 NW8       30.13F
$$

IAZ055>058-069>071-079>083-090>094-301000-
   SOUTHWEST IOWA

CITY           SKY/WX    TMP DP  RH WIND       PRES   REMARKS
ATLANTIC *     CLEAR     52  52 100 N3        30.12R
AUDUBON *      CLEAR     54  52  94 CALM      30.13S
CLARINDA *     FOG       52  52 100 CALM      30.13S VSB 1/2
COUNCIL BLFS *   N/A     57  57 100 N6        30.11S
CRESTON *      CLEAR     57  54  88 NW7       30.11S
HARLAN  *      CLEAR     52  52 100 CALM      30.15S
LAMONI         CLEAR     58  53  84 NW3       30.10F
RED OAK *      PTCLDY    54  54 100 CALM      30.12S
SHENANDOAH *   FOG       54  52  94 CALM      30.13S VSB 1/2
$$

IAZ047>049-059>061-072>074-084-301000-
   CENTRAL IOWA

CITY           SKY/WX    TMP DP  RH WIND       PRES   REMARKS
AMES           CLEAR     55  53  93 N3        30.09F
ANKENY *       CLEAR     55  54  94 CALM      30.09F
CHARITON *     CLEAR     57  55  94 W5        30.09F
DES MOINES     CLEAR     60  56  86 CALM      30.08F
GRINNELL*      CLEAR     57  55  94 NW5       30.09S
KNOXVILLE *      N/A     57  54  88 NW6       30.07F
MARSHALLTOWN   CLEAR     55  54  96 NW5       30.08S
PELLA *        CLEAR     59  55  88 NW3       30.09S
PERRY *          N/A     54  54 100 W5        30.10S
$$

IAZ004>006-015-016-023>025-035-036-301000-
   NORTH CENTRAL IOWA

CITY           SKY/WX    TMP DP  RH WIND       PRES   REMARKS
ALGONA *         N/A     57  54  88 NW7       30.11S
CLARION *      PTCLDY    54  54 100 NW3       30.09F
ESTHERVILLE    CLEAR     54  53  97 W7        30.11F
FORT DODGE *   CLEAR     54  50  87 CALM      30.11S
MASON CITY     CLEAR     53  52  96 NW5       30.10S
FOREST CITY *  CLEAR     55  55 100 E3        30.10S
IOWA FALLS *     N/A     57  54  88 W3        30.10S
$$

IAZ007>011-017>019-026>030-037>042-050>054-066-301000-
   NORTHEAST IOWA

CITY           SKY/WX    TMP DP  RH WIND       PRES   REMARKS
CEDAR RAPIDS   CLEAR     56  50  80 W6        30.06S
CHARLES CITY * CLEAR     55  54  94 W6        30.08S
CLINTON *      PTCLDY    55  54  94 W5        30.06S
DECORAH *      MOCLDY    59  57  94 CALM      30.04S
DUBUQUE        CLOUDY    60  56  86 CALM      30.05R
MONTICELLO *   MOCLDY    55  55 100 CALM      30.04F
OELWEIN *      MOCLDY    55  54  94 W6        30.07S
WATERLOO       CLEAR     57  55  93 CALM      30.06S
$$

IAZ064-065-067-068-078-301000-
   EAST CENTRAL IOWA

CITY           SKY/WX    TMP DP  RH WIND       PRES   REMARKS
DAVENPORT      CLEAR     54  53  97 SW3       30.05S
IOWA CITY      CLEAR     58  57  97 W3        30.08S
MT. PLEASANT * CLEAR     59  57  94 W3        30.07S
MUSCATINE *    CLEAR     59  55  88 SW3       30.06S
QUAD CITIES    CLEAR     58  55  90 CALM      30.04S
$$

IAZ062-063-075>077-085>089-095>099-301000-
   SOUTHEAST IOWA

CITY           SKY/WX    TMP DP  RH WIND       PRES   REMARKS
BURLINGTON     CLEAR     60  57  89 NW5       30.06S
FAIRFIELD *    PTCLDY    57  55  94 W5        30.08S
FORT MADISON * CLEAR     63  59  88 W5        30.07F
KEOKUK *       CLEAR     61  59  94 W3        30.06F
OSKALOOSA *      N/A     57  55  94 W6        30.08S
CENTERVILLE *  CLEAR     55  55 100 NW3       30.10F
OTTUMWA        CLEAR     57  56  96 W5        30.07F
WASHINGTON *   CLEAR     59  57  94 W5        30.06S
$$

ABBREVIATIONS USED IN REMARKS
   TC - TEMPERATURES IN CELSIUS
  WCI - WIND CHILL INDEX
   HX - HEAT INDEX
  VSB - VISIBILITY
$$




USA.gov is the U.S. government's official web portal to all federal, state and local government web resources and services.